Simultaneous Nadir Overpasses (SNOs) Predictions

Prediction of SNOs between AQUA and NOAA-19 Satellite Orbit:

Table of predicted SNOs for the next 14.0 days since TLE Epoch: 8/27/2013
Index Date (AQUA) Time (AQUA) Lat,Lon (AQUA) SZA (AQUA ) Date (NOAA-19) Time (NOAA-19) Lat,Lon (NOAA-19) SZA (NOAA-19 ) Distance(km) Time Diff (sec)
1 08/28/2013 06:59:55 -59.46, -95.15 129.80 08/28/2013 06:59:49 -59.46, -95.14 129.80 0.58 6
2 08/30/2013 11:44:24 -60.28,-166.75 128.25 08/30/2013 11:44:19 -60.28,-166.78 128.25 1.86 5
3 09/01/2013 16:28:31 -59.83, 122.48 127.85 09/01/2013 16:28:26 -59.83, 122.50 127.85 1.02 5
4 09/03/2013 21:12:54 -60.33, 51.09 126.57 09/03/2013 21:12:50 -60.33, 51.09 126.57 0.12 4
5 09/06/2013 01:57:12 -60.56, -20.13 125.54 09/06/2013 01:57:09 -60.56, -20.13 125.54 0.11 3
6 09/08/2013 06:41:27 -60.63, -91.23 124.64 09/08/2013 06:41:25 -60.62, -91.22 124.64 0.52 2
7 09/10/2013 10:45:35 80.16, -81.76 86.93 09/10/2013 10:44:23 79.43, -79.24 86.65 95.44 72




NCC Satellite Simultaneous Nadir Overpasses (SNOs) Prediction Service
